Regional Weather Roundup
Issued by NWS

Home | Current Version | Previous Version | Text Only | Print | Product List | Glossary Off
Versions: 1 2 3 4 5 6 7 8 9 10 11 12 13 14 15 16 17 18 19 20 21 22 23 24 25 26 27 28 29 30 31 32 33 34 35 36 37 38 39 40 41 42 43 44 45 46 47 48 49 50

935
ASUS43 KDMX 250703
RWRIA

WEATHER ROUNDUP FOR IOWA
NATIONAL WEATHER SERVICE DES MOINES IA
200 AM CDT WED MAY 25 2016

NOTE: "FAIR" INDICATES FEW OR NO CLOUDS BELOW 12,000 FEET WITH NO
SIGNIFICANT WEATHER AND/OR OBSTRUCTIONS TO VISIBILITY.

* - THESE STATIONS ARE NOT NWS STATIONS...THUS NOT UNDER NWS
QUALITY CONTROL.  THEY ALSO DO NOT REPORT WEATHER SUCH
AS PRECIPITATION OR FOG.

IAZ001>003-012>014-020>022-031>034-043>046-250800-
   NORTHWEST IOWA

CITY           SKY/WX    TMP DP  RH WIND       PRES   REMARKS
CARROLL *      CLOUDY    66  63  88 S5        29.87F
CHEROKEE *     CLOUDY    67  64  89 SE7       29.85F
DENISON *      MOCLDY    68  63  83 SE8       29.83F
LE MARS *      CLOUDY    68  63  83 SE9       29.83F
ORANGE CITY *  CLEAR     68  64  88 SE7       29.85F
SHELDON *      CLOUDY    68  64  88 SE10      29.85F
SIOUX CITY     CLOUDY    69  62  78 SE10      29.81F
SPENCER        CLOUDY    66  61  84 SE9       29.88F
STORM LAKE *   CLEAR     66  63  88 SE9       29.88F
$$

IAZ055>058-069>071-079>083-090>094-250800-
   SOUTHWEST IOWA

CITY           SKY/WX    TMP DP  RH WIND       PRES   REMARKS
ATLANTIC *     CLOUDY    68  64  88 NE3       29.84F
AUDUBON *      CLOUDY    64  61  88 CALM      29.86F
CLARINDA *       N/A     70  66  88 MISG      29.86F
COUNCIL BLFS * CLOUDY    70  66  88 S6        29.84F
CRESTON *      CLOUDY    64  64 100 SE9       29.88F
HARLAN  *        N/A    N/A N/A N/A MISG        N/A
LAMONI         CLOUDY    65  63  93 SE8       29.89F
RED OAK *      CLOUDY    70  66  88 SE7       29.83F
SHENANDOAH *   CLOUDY    70  66  88 SW18G36   29.84F
$$

IAZ047>049-059>061-072>074-084-250800-
   CENTRAL IOWA

CITY           SKY/WX    TMP DP  RH WIND       PRES   REMARKS
AMES           CLOUDY    65  62  90 SE3       29.91F
ANKENY *       CLOUDY    66  66 100 S3        29.90F
BOONE *        CLOUDY    66  63  88 S7        29.89F
CHARITON *     CLOUDY    64  64 100 SE7       29.92F FOG
DES MOINES     CLOUDY    69  63  81 SE7       29.89F
GRINNELL*      CLOUDY    66  63  88 S5        29.94F
KNOXVILLE *    CLOUDY    66  63  88 E6        29.90F
MARSHALLTOWN   PTCLDY    67  63  87 SE5       29.92S
NEWTON *       CLOUDY    64  64 100 SE5       29.92F
PELLA *        CLOUDY    65  63  92 SE5       29.94F
PERRY *          N/A     66  63  88 SE7       29.89F
$$

IAZ004>006-015-016-023>025-035-036-250800-
   NORTH CENTRAL IOWA

CITY           SKY/WX    TMP DP  RH WIND       PRES   REMARKS
ALGONA *       CLOUDY    66  63  88 SE7       29.91F
CLARION *      CLOUDY    66  63  88 S9        29.91F
ESTHERVILLE    CLOUDY    62  59  90 SE8       29.89F
FORT DODGE *   CLOUDY    66  59  77 S8        29.91F
MASON CITY     CLOUDY    60  59  96 SE3       29.94R
FOREST CITY *  CLEAR     59  59 100 CALM      29.93R
WEBSTER CITY * CLOUDY    66  63  88 SE8       29.90F
IOWA FALLS *     N/A     66  61  82 SE6       29.94F
$$

IAZ007>011-017>019-026>030-037>042-050>054-066-250800-
   NORTHEAST IOWA

CITY           SKY/WX    TMP DP  RH WIND       PRES   REMARKS
CEDAR RAPIDS   CLOUDY    65  64  97 S6        29.95R
CHARLES CITY * CLEAR     66  61  82 SE7       29.95R
CLINTON *      MOCLDY    68  62  81 SW6       29.98R
DECORAH *      PTCLDY    66  59  77 SE5       29.95R
DUBUQUE        CLOUDY    64  60  87 SW7       29.98R
MONTICELLO *   PTCLDY    66  63  88 SE3       29.97R
OELWEIN *      CLOUDY    64  61  88 SE6       29.96R
WATERLOO       CLOUDY    68  62  81 S6        29.93R
$$

IAZ064-065-067-068-078-250800-
   EAST CENTRAL IOWA

CITY           SKY/WX    TMP DP  RH WIND       PRES   REMARKS
DAVENPORT      CLEAR     68  62  81 CALM      29.98R
IOWA CITY      CLOUDY    65  61  87 CALM      29.97R
MT. PLEASANT * CLOUDY    68  66  94 S7        29.97R
MUSCATINE *    CLOUDY    63  61  94 CALM      29.98R
QUAD CITIES    PTCLDY    68  61  78 CALM      29.97R
$$

IAZ062-063-075>077-085>089-095>099-250800-
   SOUTHEAST IOWA

CITY           SKY/WX    TMP DP  RH WIND       PRES   REMARKS
BURLINGTON     CLOUDY    66  64  93 S6        29.97R
FAIRFIELD *      N/A    N/A N/A N/A MISG        N/A
FORT MADISON * CLOUDY    66  63  88 S3        29.97F
KEOKUK *       CLOUDY    66  64  94 S6        29.95F
OSKALOOSA *      N/A     64  63  94 S6        29.94F
OTTUMWA        PTCLDY    66  63  90 S7        29.94S
WASHINGTON *   CLEAR     64  64 100 S6        29.97S
$$

ABBREVIATIONS USED IN REMARKS
   TC - TEMPERATURES IN CELSIUS
  WCI - WIND CHILL INDEX
   HX - HEAT INDEX
  VSB - VISIBILITY
$$





USA.gov is the U.S. government's official web portal to all federal, state and local government web resources and services.